Location: Cahas Mountain Overlook
(37.0833°N, 80.1000°W)
Time: 04:21:47
(UTC-05:00)

Courier 1B Rocket - Visible Passes

Search period start: 28 January 2022 00:00
Search period end: 07 February 2022 00:00
Orbit: 920 x 1202 km, 28.2° (Epoch: 27 January)

Date Brightness Start Highest point End Pass type
(mag) Time Alt. Az. Time Alt. Az. Time Alt. Az.
28 Jan 6.7 04:28:46 23° SSE 04:28:46 23° SSE 04:31:49 10° SE visible
28 Jan 7.0 06:16:01 10° SW 06:18:38 12° SSW 06:21:12 10° S visible
29 Jan 6.7 05:17:55 18° SSW 05:17:55 18° SSW 05:22:14 10° SSE visible
30 Jan 7.1 04:20:45 16° SSE 04:20:45 16° SSE 04:22:24 10° SSE visible
31 Jan 7.1 05:09:58 13° SSW 05:09:58 13° SSW 05:11:44 10° S visible
31 Jan 7.5 20:32:14 10° S 20:32:25 10° S 20:32:25 10° S visible
01 Feb 7.7 21:21:35 10° SSW 21:21:42 10° SSW 21:21:42 10° SSW visible
02 Feb 7.1 20:21:30 10° SSW 20:24:35 18° S 20:24:35 18° S visible
03 Feb 7.1 19:22:11 10° S 19:25:45 14° SSE 19:27:28 13° SE visible
03 Feb 7.3 21:11:56 10° SW 21:13:51 17° SSW 21:13:51 17° SSW visible
04 Feb 6.6 20:11:31 10° SSW 20:16:42 25° SSE 20:16:42 25° SSE visible
05 Feb 6.9 19:11:32 10° SSW 19:16:32 19° SSE 19:19:33 15° SE visible
05 Feb 6.9 21:02:34 10° SW 21:05:55 25° SSW 21:05:55 25° SSW visible
06 Feb 7.2 18:12:21 10° S 18:15:39 13° SSE 18:19:01 10° ESE visible
06 Feb 6.3 20:01:56 10° SW 20:08:22 31° SSE 20:08:44 31° SSE visible
06 Feb 7.7 21:54:19 10° WSW 21:55:07 13° WSW 21:55:07 13° WSW visible
